Location: Roland
(31.1349°N, 85.4372°W)
Time: 00:09:52
(UTC+00:00)

S-56A Canister/Altair - Pass Details

Date: 19 April 2021
Orbit: 632 x 2500 km, 38.9° (Epoch: 06 May)

Event Time Altitude Azimuth Distance (km) Brightness Sun altitude
Rises 02:11:33 0° 206° (SSW) 5,561 11.9 -24.4°
Reaches altitude 10° 02:16:21 10° 195° (SSW) 4,254 11.1 -25.2°
Enters shadow 02:20:57 21° 176° (S) 3,137 10.3 -26.1°
